[[{"header":{"parameterUnit":"m.s-1","parameterCategory":2,"la1":30.2991,"la2":30.254,"lo1":-89.0895,"lo2":-89.0444,"dy":0.0017,"dx":0.0017,"nx":28,"ny":28,"refTime":"2026-02-17T09:00:00:Z","depth":"0","parameterNumber":2,"parameterNumberName":"U-component_of_CURRENTS"},"data":[0,0,0,0,0,0,0,0,0,0,0,0,0,0,0,0,0,0,0,0,0,0,0,0,0,0,0,0,0,0,0,0,0,0,0,0,0,0,0,0,0,0,0,0,0,0,0,0,0,0,0,0,0,0,0,0,0,0,-0.2369,-0.2369,0,-0.2398,-0.2398,-0.2398,-0.239,-0.239,-0.239,-0.2389,-0.2457,-0.2459,-0.2461,0,0,0,0,0,0,0,0,0,0,0,0,0,-0.2302,-0.2303,-0.2369,-0.2369,-0.237,-0.2398,-0.2398,-0.2398,-0.239,-0.239,-0.2389,-0.2389,-0.2456,-0.2459,-0.2461,0,0,0,0,0,0,0,0,0,0,0,0,0,-0.2329,-0.2303,-0.2368,-0.2371,-0.2371,-0.2398,-0.2398,-0.2398,-0.2391,-0.239,-0.2389,-0.2389,-0.2455,-0.2458,-0.2462,-0.2494,0,0,-0.2472,-0.2473,0,0,0,0,0,0,0,0,-0.2327,-0.2331,-0.237,-0.2371,-0.2371,-0.2392,-0.2399,-0.2433,-0.2391,-0.2381,-0.2389,-0.2388,-0.244,-0.2445,-0.2448,-0.2497,-0.25,-0.2472,-0.2474,-0.2475,-0.2476,0,0,0,0,0,0,0,-0.2325,-0.233,-0.2378,-0.237,-0.2371,-0.2369,-0.2372,-0.2405,-0.2413,-0.2382,-0.2382,-0.2389,-0.2441,-0.2445,-0.245,-0.2501,-0.2472,-0.2475,-0.2477,-0.2478,-0.2537,-0.2536,0,0,0,0,0,0,-0.2327,-0.2328,-0.2377,-0.2379,-0.235,-0.2371,-0.2374,-0.2384,-0.2412,-0.2416,-0.2389,-0.2388,-0.244,-0.2446,-0.2452,-0.248,-0.2475,-0.2478,-0.248,-0.2537,-0.2537,-0.2536,0,0,0,0,0,0,-0.2326,-0.2331,-0.2376,-0.2356,-0.2361,-0.2373,-0.2384,-0.2385,-0.2387,-0.2417,-0.2421,-0.239,-0.244,-0.2448,-0.2459,-0.2483,-0.248,-0.2483,-0.2538,-0.2537,-0.2536,-0.2544,0,0,0,0,0,0,-0.2324,-0.2331,-0.2333,-0.2356,-0.2363,-0.2389,-0.2385,-0.2386,-0.2393,-0.2392,-0.242,-0.2425,-0.244,-0.2454,-0.2463,-0.2488,-0.2485,-0.2538,-0.2537,-0.2537,-0.2544,-0.2544,-0.2543,0,0,0,0,0,-0.2321,-0.2326,-0.2333,-0.2339,-0.2367,-0.2389,-0.2392,-0.2397,-0.2394,-0.2396,-0.2398,-0.2424,-0.2456,-0.2456,-0.2466,-0.2493,-0.2538,-0.2537,-0.2537,-0.2545,-0.2544,-0.2543,0,0,0,0,0,0,-0.2295,-0.2327,-0.2334,-0.2348,-0.2367,-0.2389,-0.2389,-0.2398,-0.2402,-0.2397,-0.242,-0.2426,-0.244,-0.246,-0.246,-0.2503,-0.2502,-0.2503,-0.2505,-0.2504,-0.2504,-0.2549,-0.2488,0,0,0,0,0,-0.2293,-0.2305,-0.2336,-0.2345,-0.2354,-0.2373,-0.238,-0.2387,-0.2399,-0.24,-0.2417,-0.2432,-0.2446,-0.2467,-0.2476,-0.2513,-0.2496,-0.2533,-0.2533,-0.2533,-0.2573,-0.2513,-0.2511,-0.2533,-0.2533,-0.2533,0,0,-0.2283,-0.2304,-0.2309,-0.234,-0.2352,-0.2381,-0.2374,-0.2387,-0.2417,-0.2409,-0.2438,-0.2426,-0.2448,-0.247,-0.2482,-0.2494,-0.2512,-0.2531,-0.2531,-0.2573,-0.2512,-0.251,-0.2508,-0.2532,-0.2533,-0.2533,0,0,-0.2274,-0.2291,-0.2299,-0.2323,-0.2349,-0.2373,-0.2379,-0.2402,-0.2415,-0.2437,-0.243,-0.2426,-0.2464,-0.2478,-0.2494,-0.25,-0.2497,-0.2506,-0.2566,-0.2505,-0.2503,-0.2502,-0.2458,-0.2452,-0.2523,-0.2523,-0.2523,0,-0.226,-0.2291,-0.2303,-0.2326,-0.2365,-0.2375,-0.2413,-0.2428,-0.2451,-0.2478,-0.2445,-0.2467,-0.2473,-0.2515,-0.2519,-0.2505,-0.2473,-0.2567,-0.2505,-0.2503,-0.2501,-0.2457,-0.2451,-0.2523,-0.2523,-0.2523,-0.2523,0,-0.2265,-0.2298,-0.2306,-0.2354,-0.2391,-0.2421,-0.2464,-0.2492,-0.2505,-0.2522,-0.2539,-0.2511,-0.2529,-0.2526,-0.2538,-0.2546,-0.2526,-0.2493,-0.2509,-0.25,-0.2453,-0.2446,-0.2524,-0.2524,-0.2524,-0.2524,0,0,-0.2221,-0.2298,-0.2302,-0.2358,-0.242,-0.2461,-0.252,-0.2591,-0.2619,-0.2617,-0.2641,-0.2655,-0.2618,-0.2632,-0.2613,-0.2591,-0.2535,-0.2559,-0.2555,-0.2522,-0.2411,-0.2347,-0.2334,-0.2482,-0.2481,-0.2481,-0.2377,0,-0.2229,-0.2297,-0.2338,-0.243,-0.2486,-0.2548,-0.2601,-0.2662,-0.2676,-0.2686,-0.2676,-0.2661,-0.2663,-0.2635,-0.2618,-0.2547,-0.2522,-0.2568,-0.2423,-0.242,-0.2368,-0.2326,-0.2245,-0.2142,-0.237,-0.2369,-0.2368,0,-0.2218,-0.2289,-0.2375,-0.251,-0.2537,-0.259,-0.2702,-0.2744,-0.277,-0.2764,-0.2758,-0.2714,-0.2704,-0.2657,-0.2576,-0.2601,-0.253,-0.2473,-0.2465,-0.2413,-0.2344,-0.2191,-0.2121,-0.2115,-0.2358,-0.2359,-0.2359,0,-0.22,-0.2318,-0.2405,-0.2449,-0.2581,-0.2647,-0.2713,-0.2769,-0.2786,-0.2788,-0.2755,-0.2738,-0.267,-0.2611,-0.2517,-0.2531,-0.2394,-0.2375,-0.226,-0.2254,-0.2167,-0.2155,-0.2085,-0.2309,-0.2309,-0.2309,-0.231,0,-0.2198,-0.2271,-0.2407,-0.2459,-0.2568,-0.2656,-0.2715,-0.2775,-0.2779,-0.2764,-0.2769,-0.2711,-0.2648,-0.2564,-0.2506,-0.2362,-0.2371,-0.2278,-0.2221,-0.2165,-0.2154,-0.2131,-0.2164,-0.2306,-0.2306,-0.2307,-0.2308,0,-0.2161,-0.2229,-0.2359,-0.252,-0.2556,-0.264,-0.2711,-0.2721,-0.2744,-0.2708,-0.2696,-0.2661,-0.2553,-0.2491,-0.2357,-0.2306,-0.2155,-0.2143,-0.2096,-0.2037,-0.1933,-0.197,-0.1877,-0.1818,-0.2001,-0.1998,-0.1997,0,-0.2143,-0.2198,-0.2388,-0.2427,-0.2499,-0.2593,-0.2614,-0.2687,-0.2676,-0.2662,-0.2626,-0.2538,-0.2438,-0.2256,-0.2149,-0.2021,-0.204,-0.1889,-0.1909,-0.1924,-0.1923,-0.1958,-0.1918,-0.1786,-0.1782,-0.178,-0.1777,0,-0.2148,-0.2217,-0.2327,-0.2379,-0.2435,-0.2497,-0.2541,-0.253,-0.2571,-0.2531,-0.2447,-0.2371,-0.2217,-0.2045,-0.1915,-0.1835,-0.1859,-0.1826,-0.1835,-0.1759,-0.1797,-0.1712,-0.1882,-0.1752,-0.1755,-0.1757,-0.1758,-0.1759,-0.2154,-0.2196,-0.2281,-0.2314,-0.2365,-0.2365,-0.2347,-0.2361,-0.2321,-0.2228,-0.2254,-0.2116,-0.2006,-0.1798,-0.1711,-0.1581,-0.1643,-0.1548,-0.1592,-0.1627,-0.1575,-0.1708,-0.152,-0.1521,-0.1522,-0.1523,-0.1524,0,-0.2115,-0.2121,-0.2167,-0.2198,-0.2181,-0.2243,-0.2242,-0.2171,-0.2063,-0.2032,-0.1929,-0.1849,-0.1683,-0.1606,-0.1478,-0.1393,-0.1355,-0.1366,-0.1408,-0.1375,-0.1466,-0.1462,-0.1259,-0.1259,-0.1259,-0.1259,-0.1259,-0.1259,-0.2087,-0.2077,-0.2056,-0.1978,-0.1979,-0.1902,-0.1873,-0.1792,-0.1743,-0.1602,-0.1566,-0.1587,-0.1538,-0.1599,-0.1449,-0.1351,-0.1324,-0.1274,-0.1298,-0.1396,-0.1418,-0.1438,-0.1441,-0.1237,-0.1237,-0.1148,-0.1148,-0.1148]},{"header":{"parameterUnit":"m.s-1","parameterCategory":2,"la1":30.2991,"la2":30.254,"lo1":-89.0895,"lo2":-89.0444,"dy":0.0017,"dx":0.0017,"nx":28,"ny":28,"refTime":"2026-02-17T09:00:00:Z","depth":"0","parameterNumber":3,"parameterNumberName":"V-component_of_CURRENTS"},"data":[0,0,0,0,0,0,0,0,0,0,0,0,0,0,0,0,0,0,0,0,0,0,0,0,0,0,0,0,0,0,0,0,0,0,0,0,0,0,0,0,0,0,0,0,0,0,0,0,0,0,0,0,0,0,0,0,0,0,-0.0408,-0.0407,0,-0.0318,-0.0316,-0.0315,-0.0248,-0.0247,-0.0247,-0.0246,-0.0034,-0.0029,-0.0024,0,0,0,0,0,0,0,0,0,0,0,0,0,-0.043,-0.0431,-0.0408,-0.0407,-0.0406,-0.0318,-0.0316,-0.0315,-0.0248,-0.0247,-0.0247,-0.0246,-0.0036,-0.0029,-0.0023,0,0,0,0,0,0,0,0,0,0,0,0,0,-0.0387,-0.0431,-0.0408,-0.0363,-0.0359,-0.0318,-0.0316,-0.0315,-0.0248,-0.0247,-0.0247,-0.0246,-0.0038,-0.003,-0.0022,0.0014,0,0,0.0002,0.0005,0,0,0,0,0,0,0,0,-0.0389,-0.0386,-0.0371,-0.0367,-0.0361,-0.0295,-0.0246,-0.0199,-0.0248,-0.0288,-0.0246,-0.0246,-0.0112,-0.0098,-0.0081,0.0024,0.0033,0.0003,0.0007,0.0011,0.0013,0,0,0,0,0,0,0,-0.0393,-0.0389,-0.037,-0.037,-0.0364,-0.0316,-0.031,-0.0237,-0.02,-0.0284,-0.028,-0.0273,-0.0108,-0.0089,-0.0075,0.0036,0.0002,0.001,0.0014,0.0017,0.0182,0.0181,0,0,0,0,0,0,-0.0414,-0.0392,-0.0373,-0.0368,-0.0376,-0.0317,-0.031,-0.0315,-0.0204,-0.0188,-0.0274,-0.027,-0.0103,-0.0084,-0.0067,-0.0012,0.0011,0.0018,0.0023,0.0182,0.0182,0.0181,0,0,0,0,0,0,-0.0415,-0.0413,-0.0377,-0.0378,-0.0371,-0.0318,-0.0324,-0.0314,-0.0293,-0.0197,-0.0178,-0.0264,-0.0101,-0.0078,-0.002,-0.0003,0.0022,0.0029,0.0182,0.0182,0.0181,0.0097,0,0,0,0,0,0,-0.0416,-0.0414,-0.0421,-0.0381,-0.0372,-0.0359,-0.0325,-0.0313,-0.0291,-0.0286,-0.0183,-0.0163,-0.0099,-0.0033,-0.0012,0.0008,0.0035,0.0183,0.0182,0.0182,0.01,0.0093,0.0087,0,0,0,0,0,-0.0417,-0.043,-0.0422,-0.0419,-0.0385,-0.036,-0.0351,-0.0309,-0.0292,-0.0287,-0.0229,-0.0166,-0.0022,-0.0027,-0.0003,0.0021,0.0183,0.0182,0.0182,0.0103,0.0094,0.0088,0,0,0,0,0,0,-0.0436,-0.0424,-0.0414,-0.0421,-0.0397,-0.0349,-0.034,-0.0316,-0.0267,-0.0259,-0.0172,-0.0148,-0.0095,-0.0031,-0.0039,0.0063,0.0093,0.0097,0.0024,0.0018,0.0012,0.0032,0.0042,0,0,0,0,0,-0.0448,-0.0458,-0.0433,-0.0436,-0.043,-0.0387,-0.0371,-0.0347,-0.0302,-0.0281,-0.0214,-0.0141,-0.008,-0.0029,0.0028,0.0092,0.0142,0.0122,0.0116,0.0111,0.0142,0.0212,0.0215,0.0178,0.0178,0.0178,0,0,-0.0455,-0.045,-0.0454,-0.0441,-0.0418,-0.0415,-0.0375,-0.0359,-0.0342,-0.0262,-0.0218,-0.0166,-0.0075,-0.0018,0.0016,0.0043,0.0135,0.0109,0.0104,0.014,0.0211,0.0215,0.0219,0.0178,0.0178,0.0178,0,0,-0.0477,-0.0473,-0.049,-0.0479,-0.0459,-0.0433,-0.0435,-0.0395,-0.0362,-0.0326,-0.0267,-0.0205,-0.0113,-0.0038,0.0012,0.0012,0.0084,0.0025,0.0038,0.0103,0.0107,0.0112,0.0125,0.0132,0.0041,0.0041,0.0041,0,-0.0485,-0.0508,-0.0487,-0.0499,-0.0492,-0.0449,-0.0458,-0.042,-0.0365,-0.0312,-0.0323,-0.0166,-0.0115,0.0002,-0.0017,0.0004,0.0032,0.0055,0.0096,0.0102,0.0108,0.0122,0.013,0.0037,0.0037,0.0038,0.0038,0,-0.0521,-0.0538,-0.0546,-0.0552,-0.0537,-0.054,-0.0495,-0.0461,-0.0424,-0.0361,-0.0258,-0.0193,-0.008,-0.0072,-0.0049,0.0037,0.0034,0.0061,0.0114,0.0107,0.012,0.0131,0.0031,0.0032,0.0034,0.0035,0,0,-0.0544,-0.057,-0.0572,-0.0578,-0.0569,-0.0551,-0.0521,-0.045,-0.0384,-0.0325,-0.0231,-0.015,-0.0084,-0.0025,0.0026,0.0078,0.0094,0.0079,0.0084,0.009,0.0201,0.0232,0.0246,0.0125,0.0127,0.0129,0.0172,0,-0.0579,-0.0627,-0.0618,-0.0633,-0.0652,-0.0595,-0.0553,-0.0472,-0.0397,-0.0295,-0.0179,-0.0088,-0.007,-0.0027,0.0033,0.0088,0.0127,0.0078,0.0212,0.0215,0.0244,0.0263,0.0311,0.0358,0.0182,0.0184,0.0186,0,-0.0618,-0.0648,-0.0693,-0.0663,-0.0656,-0.0648,-0.0547,-0.0495,-0.0334,-0.0268,-0.0134,-0.0048,0.0064,0.0048,0.0184,0.0149,0.0169,0.0198,0.0201,0.0285,0.027,0.035,0.0384,0.0543,0.0202,0.0201,0.02,0,-0.0658,-0.068,-0.0718,-0.0722,-0.0691,-0.0665,-0.0618,-0.0481,-0.0409,-0.0245,-0.019,-0.0008,0.0047,0.0143,0.0196,0.0192,0.0309,0.0319,0.0372,0.0372,0.0474,0.048,0.0691,0.0405,0.0405,0.0405,0.0405,0,-0.0706,-0.0724,-0.074,-0.0767,-0.0738,-0.0697,-0.062,-0.0532,-0.0411,-0.0322,-0.0176,-0.0103,0.0066,0.0154,0.0214,0.0327,0.0333,0.0394,0.0409,0.0437,0.0439,0.0632,0.0686,0.0406,0.0406,0.0406,0.0405,0,-0.0747,-0.0768,-0.0798,-0.079,-0.077,-0.0745,-0.0657,-0.0598,-0.0484,-0.0385,-0.0346,-0.0174,-0.0047,0.0102,0.024,0.0334,0.0543,0.0462,0.0458,0.0474,0.0714,0.0759,0.0989,0.1087,0.0575,0.0577,0.0578,0,-0.0776,-0.0814,-0.0824,-0.0825,-0.0827,-0.0784,-0.0749,-0.0641,-0.0596,-0.044,-0.0413,-0.0259,-0.0154,0.0088,0.0301,0.0473,0.0572,0.0609,0.0641,0.0765,0.0825,0.0855,0.0922,0.0707,0.0709,0.0711,0.0712,0,-0.0816,-0.0827,-0.0838,-0.0871,-0.0862,-0.084,-0.0801,-0.0784,-0.0666,-0.0605,-0.053,-0.0439,-0.0156,0.0107,0.0376,0.0488,0.0768,0.0652,0.0813,0.0992,0.1012,0.1098,0.0593,0.0728,0.0726,0.0725,0.0724,0.0724,-0.0818,-0.0822,-0.0851,-0.0869,-0.0884,-0.0911,-0.0897,-0.0876,-0.083,-0.0741,-0.0647,-0.0485,-0.004,0.0376,0.0519,0.0922,0.0882,0.1048,0.1096,0.1117,0.123,0.0738,0.0875,0.0874,0.0874,0.0873,0.0873,0,-0.0776,-0.0796,-0.0842,-0.0873,-0.0935,-0.093,-0.0933,-0.0931,-0.0924,-0.0809,-0.0727,-0.025,0.0165,0.0585,0.1138,0.1355,0.1414,0.1465,0.1544,0.1596,0.12,0.1228,0.1412,0.1411,0.1411,0.1411,0.1411,0.1411,-0.0748,-0.0763,-0.0804,-0.0905,-0.0953,-0.1002,-0.1016,-0.1019,-0.0941,-0.0755,-0.0489,-0.0262,0.0402,0.1218,0.1721,0.1774,0.1967,0.1949,0.2041,0.1786,0.1751,0.1718,0.1762,0.2054,0.2055,0.2444,0.2448,0.2451]}],[{"header":{"parameterUnit":"m.s-1","parameterCategory":2,"la1":30.2991,"la2":30.254,"lo1":-89.0895,"lo2":-89.0444,"dy":0.0017,"dx":0.0017,"nx":28,"ny":28,"refTime":"2026-02-17T09:00:00:Z","depth":"2","parameterNumber":2,"parameterNumberName":"U-component_of_CURRENTS"},"data":[0,0,0,0,0,0,0,0,0,0,0,0,0,0,0,0,0,0,0,0,0,0,0,0,0,0,0,0,0,0,0,0,0,0,0,0,0,0,0,0,0,0,0,0,0,0,0,0,0,0,0,0,0,0,0,0,0,0,-0.2079,-0.2079,0,-0.2109,-0.2109,-0.2109,-0.2106,-0.2106,-0.2106,-0.2105,-0.2123,-0.2123,-0.2124,0,0,0,0,0,0,0,0,0,0,0,0,0,-0.2028,-0.2029,-0.2079,-0.2079,-0.208,-0.2108,-0.2109,-0.2109,-0.2106,-0.2106,-0.2106,-0.2105,-0.2122,-0.2123,-0.2124,0,0,0,0,0,0,0,0,0,0,0,0,0,-0.2052,-0.2029,-0.2079,-0.2083,-0.2084,-0.2108,-0.2109,-0.2109,-0.2107,-0.2106,-0.2106,-0.2105,-0.2122,-0.2123,-0.2124,-0.2142,0,0,-0.2128,-0.2128,0,0,0,0,0,0,0,0,-0.205,-0.2053,-0.2082,-0.2083,-0.2083,-0.2104,-0.2097,-0.212,-0.2107,-0.2096,-0.2105,-0.2105,-0.2117,-0.2118,-0.2123,-0.2142,-0.2143,-0.2128,-0.2129,-0.2129,-0.213,0,0,0,0,0,0,0,-0.2049,-0.2052,-0.2089,-0.2082,-0.2083,-0.2086,-0.2089,-0.2102,-0.2108,-0.2097,-0.2097,-0.2103,-0.2117,-0.2122,-0.2124,-0.2143,-0.2128,-0.2129,-0.213,-0.213,-0.2167,-0.2167,0,0,0,0,0,0,-0.2048,-0.2051,-0.2088,-0.209,-0.2067,-0.2088,-0.209,-0.2097,-0.2108,-0.211,-0.2103,-0.2103,-0.212,-0.2122,-0.2124,-0.2151,-0.2129,-0.213,-0.2131,-0.2166,-0.2167,-0.2167,0,0,0,0,0,0,-0.2047,-0.2051,-0.2087,-0.2072,-0.2077,-0.2089,-0.2097,-0.2098,-0.2105,-0.2113,-0.2114,-0.2109,-0.212,-0.2123,-0.2136,-0.2151,-0.2131,-0.2132,-0.2166,-0.2167,-0.2167,-0.2201,0,0,0,0,0,0,-0.2045,-0.2051,-0.2053,-0.2072,-0.2078,-0.2102,-0.2097,-0.2099,-0.2109,-0.2109,-0.2118,-0.2119,-0.212,-0.2134,-0.2137,-0.2153,-0.2133,-0.2166,-0.2166,-0.2167,-0.2199,-0.2202,-0.2205,0,0,0,0,0,-0.2043,-0.2049,-0.2053,-0.2058,-0.2082,-0.2103,-0.2106,-0.2112,-0.211,-0.2115,-0.2121,-0.2119,-0.2139,-0.2136,-0.2139,-0.2155,-0.2166,-0.2166,-0.2167,-0.2198,-0.2202,-0.2205,0,0,0,0,0,0,-0.2026,-0.205,-0.2055,-0.2067,-0.2084,-0.2103,-0.2107,-0.2115,-0.2124,-0.2122,-0.2127,-0.2129,-0.2144,-0.2144,-0.2139,-0.2165,-0.2151,-0.2152,-0.2173,-0.2177,-0.218,-0.2183,-0.2134,0,0,0,0,0,-0.2026,-0.2035,-0.2059,-0.2067,-0.2076,-0.2093,-0.2102,-0.211,-0.2122,-0.2125,-0.2133,-0.2139,-0.215,-0.2158,-0.2163,-0.2183,-0.2165,-0.2193,-0.2196,-0.2198,-0.2202,-0.2182,-0.2184,-0.2169,-0.2169,-0.2169,0,0,-0.202,-0.2035,-0.2039,-0.2064,-0.2076,-0.2099,-0.2096,-0.2112,-0.2133,-0.2126,-0.2149,-0.2149,-0.2156,-0.2174,-0.2181,-0.2177,-0.2192,-0.2199,-0.2201,-0.2204,-0.2183,-0.2184,-0.2186,-0.217,-0.2169,-0.2169,0,0,-0.2016,-0.2028,-0.2036,-0.2057,-0.2081,-0.2097,-0.2104,-0.2127,-0.2137,-0.2162,-0.216,-0.2169,-0.2188,-0.2196,-0.2203,-0.2225,-0.2204,-0.2225,-0.2249,-0.223,-0.2231,-0.2232,-0.2206,-0.2204,-0.223,-0.223,-0.223,0,-0.2008,-0.2027,-0.2042,-0.2062,-0.2081,-0.21,-0.2122,-0.2141,-0.2166,-0.2174,-0.217,-0.219,-0.2199,-0.2221,-0.2234,-0.2233,-0.2213,-0.2238,-0.2234,-0.2234,-0.2234,-0.2208,-0.2205,-0.2232,-0.2232,-0.2232,-0.2232,0,-0.2016,-0.2037,-0.2044,-0.2079,-0.2101,-0.2122,-0.2157,-0.2174,-0.2188,-0.2203,-0.2219,-0.2226,-0.2235,-0.2243,-0.2253,-0.2264,-0.2245,-0.2237,-0.2226,-0.2238,-0.2209,-0.2206,-0.2235,-0.2234,-0.2233,-0.2233,0,0,-0.1983,-0.2039,-0.2042,-0.2061,-0.2115,-0.2129,-0.2171,-0.2206,-0.222,-0.224,-0.2252,-0.2281,-0.2272,-0.2279,-0.2283,-0.228,-0.2273,-0.2267,-0.2265,-0.2243,-0.2223,-0.2149,-0.2138,-0.2261,-0.226,-0.226,-0.2201,0,-0.1985,-0.202,-0.2056,-0.2094,-0.2116,-0.2157,-0.2191,-0.2224,-0.2247,-0.2261,-0.227,-0.2282,-0.229,-0.2292,-0.2292,-0.228,-0.2267,-0.2289,-0.2213,-0.2211,-0.2145,-0.2132,-0.1993,-0.1923,-0.2197,-0.2197,-0.2196,0,-0.1979,-0.2007,-0.2045,-0.2099,-0.2111,-0.2138,-0.2184,-0.2218,-0.2253,-0.2269,-0.2282,-0.2287,-0.2302,-0.2295,-0.2274,-0.2287,-0.2259,-0.2243,-0.224,-0.2157,-0.2131,-0.1956,-0.1906,-0.2191,-0.2191,-0.2192,-0.2192,0,-0.1938,-0.1995,-0.2023,-0.2046,-0.2113,-0.2132,-0.2162,-0.2208,-0.223,-0.2267,-0.2276,-0.229,-0.2286,-0.2267,-0.2249,-0.226,-0.2204,-0.2208,-0.2109,-0.2104,-0.1963,-0.1945,-0.2174,-0.2174,-0.2174,-0.2174,-0.2174,0,-0.1926,-0.1945,-0.2002,-0.202,-0.2036,-0.2098,-0.2119,-0.2154,-0.2201,-0.221,-0.2265,-0.2266,-0.2279,-0.2255,-0.2237,-0.2156,-0.2187,-0.2105,-0.208,-0.197,-0.1954,-0.2172,-0.2173,-0.2172,-0.2173,-0.2173,-0.2173,0,-0.1873,-0.1922,-0.1941,-0.2002,-0.2017,-0.2019,-0.2078,-0.2088,-0.2156,-0.2168,-0.2181,-0.2238,-0.2212,-0.2201,-0.2163,-0.2123,-0.2068,-0.2028,-0.1896,-0.1857,-0.1986,-0.1989,-0.1914,-0.191,-0.1908,-0.1905,-0.1904,0,-0.185,-0.1859,-0.1897,-0.1896,-0.192,-0.1944,-0.1957,-0.204,-0.2055,-0.2138,-0.2125,-0.2141,-0.2116,-0.2042,-0.1975,-0.1899,-0.1977,-0.1732,-0.173,-0.1974,-0.1958,-0.1965,-0.1972,-0.1557,-0.1552,-0.1548,-0.1545,0,-0.1788,-0.1796,-0.1804,-0.1799,-0.1806,-0.182,-0.1848,-0.1864,-0.1954,-0.1986,-0.2009,-0.2007,-0.1949,-0.1817,-0.1731,-0.1674,-0.1739,-0.1652,-0.1921,-0.165,-0.1634,-0.162,-0.1638,-0.1512,-0.1515,-0.1518,-0.1519,-0.1521,-0.1715,-0.1686,-0.1685,-0.1672,-0.1681,-0.1677,-0.1655,-0.1711,-0.1732,-0.176,-0.1834,-0.1791,-0.1767,-0.1569,-0.1466,-0.1384,-0.1507,-0.1451,-0.1464,-0.1481,-0.1455,-0.1436,-0.1272,-0.1274,-0.1275,-0.1277,-0.1278,0,-0.1601,-0.158,-0.156,-0.1533,-0.1496,-0.1548,-0.156,-0.1533,-0.1524,-0.1577,-0.1588,-0.1436,-0.1343,-0.1316,-0.1134,-0.1087,-0.1085,-0.1043,-0.1056,-0.1089,-0.1119,-0.1077,-0.0792,-0.0791,-0.0789,-0.0788,0,0,-0.1538,-0.1467,-0.1453,-0.135,-0.134,-0.1263,-0.1249,-0.1244,-0.1258,-0.1236,-0.1225,-0.1327,-0.1316,-0.1086,-0.1004,-0.0874,-0.0977,-0.0824,-0.1216,-0.1268,-0.1297,-0.1355,-0.1328,0,0,0,0,0]},{"header":{"parameterUnit":"m.s-1","parameterCategory":2,"la1":30.2991,"la2":30.254,"lo1":-89.0895,"lo2":-89.0444,"dy":0.0017,"dx":0.0017,"nx":28,"ny":28,"refTime":"2026-02-17T09:00:00:Z","depth":"2","parameterNumber":3,"parameterNumberName":"V-component_of_CURRENTS"},"data":[0,0,0,0,0,0,0,0,0,0,0,0,0,0,0,0,0,0,0,0,0,0,0,0,0,0,0,0,0,0,0,0,0,0,0,0,0,0,0,0,0,0,0,0,0,0,0,0,0,0,0,0,0,0,0,0,0,0,-0.0389,-0.0388,0,-0.0312,-0.0311,-0.031,-0.0253,-0.0253,-0.0252,-0.0252,-0.0097,-0.0093,-0.009,0,0,0,0,0,0,0,0,0,0,0,0,0,-0.04,-0.04,-0.0389,-0.0388,-0.0387,-0.0312,-0.0311,-0.031,-0.0253,-0.0253,-0.0252,-0.0252,-0.0098,-0.0094,-0.0089,0,0,0,0,0,0,0,0,0,0,0,0,0,-0.0365,-0.04,-0.0389,-0.0351,-0.0347,-0.0312,-0.0311,-0.0309,-0.0253,-0.0253,-0.0252,-0.0252,-0.01,-0.0094,-0.0089,-0.0063,0,0,-0.0071,-0.0069,0,0,0,0,0,0,0,0,-0.0367,-0.0364,-0.0357,-0.0354,-0.0349,-0.0293,-0.0258,-0.0224,-0.0253,-0.0287,-0.0252,-0.0252,-0.0157,-0.0147,-0.0132,-0.0056,-0.0049,-0.0071,-0.0067,-0.0065,-0.0063,0,0,0,0,0,0,0,-0.0369,-0.0367,-0.0356,-0.0357,-0.0352,-0.0309,-0.0304,-0.0251,-0.0223,-0.0284,-0.028,-0.0275,-0.0154,-0.0137,-0.0127,-0.0047,-0.0071,-0.0066,-0.0062,-0.006,0.0071,0.0071,0,0,0,0,0,0,-0.0388,-0.037,-0.0359,-0.0354,-0.0359,-0.031,-0.0304,-0.031,-0.0225,-0.0212,-0.0275,-0.0272,-0.0147,-0.0134,-0.0122,-0.0082,-0.0065,-0.0059,-0.0056,0.0071,0.0071,0.0071,0,0,0,0,0,0,-0.0389,-0.0388,-0.0362,-0.0361,-0.0355,-0.0311,-0.0318,-0.0309,-0.0292,-0.022,-0.0205,-0.0267,-0.0146,-0.013,-0.0082,-0.0076,-0.0057,-0.0051,0.0071,0.0071,0.0071,-0.0005,0,0,0,0,0,0,-0.039,-0.0389,-0.0396,-0.0363,-0.0356,-0.0348,-0.0318,-0.0308,-0.029,-0.0286,-0.0208,-0.0193,-0.0145,-0.0091,-0.0076,-0.0067,-0.0047,0.0071,0.0071,0.0071,-0.0003,-0.0008,-0.0012,0,0,0,0,0,-0.0391,-0.0404,-0.0398,-0.0396,-0.0369,-0.0348,-0.0341,-0.0305,-0.0291,-0.0287,-0.0238,-0.0195,-0.008,-0.0087,-0.0069,-0.0059,0.0071,0.0071,0.0071,-0.0001,-0.0007,-0.0012,0,0,0,0,0,0,-0.0407,-0.0399,-0.0391,-0.04,-0.038,-0.034,-0.0332,-0.0311,-0.027,-0.0264,-0.0196,-0.0178,-0.0135,-0.0088,-0.0097,-0.0021,0.0003,0.0007,-0.0057,-0.0062,-0.0067,-0.0082,-0.0042,0,0,0,0,0,-0.0418,-0.0428,-0.0408,-0.0413,-0.0408,-0.0372,-0.0358,-0.0338,-0.03,-0.0282,-0.023,-0.0172,-0.0121,-0.0087,-0.0038,0.0006,0.0052,0.0025,0.002,0.0016,0.0015,0.0085,0.0087,0.0071,0.0071,0.0071,0,0,-0.0425,-0.0422,-0.0426,-0.0418,-0.0398,-0.0398,-0.0362,-0.0349,-0.0342,-0.027,-0.0241,-0.0189,-0.0116,-0.0073,-0.0047,-0.003,0.0042,0.0016,0.0011,0.0014,0.0085,0.0087,0.0088,0.0071,0.0071,0.0071,0,0,-0.0446,-0.0444,-0.046,-0.0452,-0.0436,-0.0415,-0.0417,-0.0384,-0.0361,-0.0331,-0.0278,-0.0225,-0.0151,-0.0094,-0.0056,-0.0054,0.0008,-0.0039,-0.0064,0.0003,0.0005,0.0007,0.0053,0.006,-0.0033,-0.0033,-0.0034,0,-0.0454,-0.0477,-0.0458,-0.0471,-0.0471,-0.043,-0.0445,-0.0416,-0.037,-0.0351,-0.0333,-0.0219,-0.0159,-0.0093,-0.0094,-0.0063,-0.0025,-0.0051,-0.0003,-0.0,0.0004,0.005,0.0059,-0.0037,-0.0037,-0.0036,-0.0036,0,-0.0488,-0.0506,-0.0514,-0.0523,-0.0517,-0.0522,-0.0492,-0.0475,-0.0445,-0.0411,-0.035,-0.0267,-0.0198,-0.0168,-0.0129,-0.0071,-0.0055,-0.0026,0.0007,0.0,0.005,0.006,-0.0042,-0.0041,-0.004,-0.0039,0,0,-0.0511,-0.0537,-0.0539,-0.0561,-0.055,-0.0552,-0.054,-0.0517,-0.0506,-0.0444,-0.0414,-0.0319,-0.0272,-0.0225,-0.0159,-0.0094,-0.004,-0.0057,-0.0051,-0.002,0.0093,0.0108,0.0121,-0.0005,-0.0003,-0.0002,0.0111,0,-0.0545,-0.0594,-0.059,-0.0629,-0.0654,-0.0623,-0.0617,-0.0587,-0.0543,-0.0501,-0.0402,-0.0348,-0.0293,-0.0257,-0.0185,-0.0071,-0.0014,-0.0074,0.0102,0.0107,0.0115,0.0134,0.011,0.0209,0.0122,0.0124,0.0125,0,-0.0581,-0.0614,-0.0666,-0.0699,-0.0705,-0.0716,-0.0704,-0.0692,-0.0618,-0.0582,-0.0504,-0.0426,-0.0317,-0.0274,-0.0086,-0.0129,-0.0033,0.0055,0.0062,0.0112,0.0142,0.0207,0.0232,0.0143,0.0142,0.014,0.0139,0,-0.0622,-0.0667,-0.0716,-0.0728,-0.0751,-0.0762,-0.0764,-0.0717,-0.0703,-0.0626,-0.0597,-0.0465,-0.0383,-0.0246,-0.007,-0.0076,0.0134,0.0153,0.0255,0.0256,0.029,0.0292,0.0273,0.0273,0.0273,0.0273,0.0272,0,-0.0668,-0.0707,-0.0743,-0.0775,-0.0826,-0.0816,-0.0841,-0.0819,-0.0768,-0.0742,-0.0641,-0.0571,-0.0371,-0.0225,-0.0083,0.0121,0.0128,0.0255,0.0294,0.0261,0.0259,0.0247,0.0242,0.0277,0.0276,0.0275,0.0275,0,-0.0706,-0.073,-0.0794,-0.0837,-0.0853,-0.0888,-0.0907,-0.0911,-0.086,-0.0817,-0.0792,-0.0632,-0.0439,-0.0247,-0.0002,0.0113,0.0297,0.036,0.0295,0.0324,0.0372,0.0362,0.0488,0.0489,0.0491,0.0492,0.0493,0,-0.0732,-0.077,-0.0846,-0.0888,-0.0913,-0.0959,-0.0985,-0.0962,-0.0953,-0.0841,-0.0814,-0.0628,-0.0481,-0.0137,0.01,0.0344,0.0346,0.0452,0.0442,0.0373,0.0398,0.0386,0.0375,0.0454,0.0455,0.0455,0.0455,0,-0.0781,-0.0806,-0.0861,-0.0946,-0.0996,-0.1047,-0.1073,-0.1077,-0.1022,-0.0964,-0.0833,-0.0705,-0.0379,-0.0098,0.0201,0.0343,0.0409,0.0469,0.0444,0.0393,0.0348,0.037,0.0359,0.046,0.0459,0.0459,0.0459,0.0459,-0.0809,-0.0859,-0.0927,-0.1004,-0.1063,-0.1108,-0.1133,-0.1125,-0.1094,-0.0975,-0.0846,-0.0629,-0.0371,0.0071,0.0282,0.0479,0.048,0.0534,0.053,0.0526,0.0492,0.0451,0.0574,0.0575,0.0575,0.0575,0.0575,0,-0.0841,-0.0898,-0.0977,-0.1062,-0.112,-0.1141,-0.1169,-0.1155,-0.1104,-0.0961,-0.0812,-0.0507,-0.0201,0.0062,0.0377,0.0557,0.0543,0.0582,0.0529,0.0524,0.052,0.0483,0.0565,0.0566,0.0566,0.0566,0,0,-0.0862,-0.0939,-0.0982,-0.1084,-0.1138,-0.1184,-0.1192,-0.1151,-0.1053,-0.0901,-0.0732,-0.0501,-0.0182,0.0037,0.0264,0.0424,0.0425,0.0438,0.043,0.0336,0.033,0.048,0.0416,0,0,0,0,0]}],[{"header":{"parameterUnit":"m.s-1","parameterCategory":2,"la1":30.2991,"la2":30.254,"lo1":-89.0895,"lo2":-89.0444,"dy":0.0017,"dx":0.0017,"nx":28,"ny":28,"refTime":"2026-02-17T09:00:00:Z","depth":"4","parameterNumber":2,"parameterNumberName":"U-component_of_CURRENTS"},"data":[0,0,0,0,0,0,0,0,0,0,0,0,0,0,0,0,0,0,0,0,0,0,0,0,0,0,0,0,0,0,0,0,0,0,0,0,0,0,0,0,0,0,0,0,0,0,0,0,0,0,0,0,0,0,0,0,0,0,-0.1429,-0.1429,0,-0.1483,-0.1484,-0.1484,-0.1524,-0.1525,-0.1525,-0.1526,-0.1581,-0.1582,-0.1583,0,0,0,0,0,0,0,0,0,0,0,0,0,-0.1366,-0.1367,-0.1429,-0.143,-0.143,-0.1483,-0.1484,-0.1484,-0.1524,-0.1525,-0.1525,-0.1526,-0.158,-0.1582,-0.1583,0,0,0,0,0,0,0,0,0,0,0,0,0,-0.1403,-0.1367,-0.1429,-0.1457,-0.146,-0.1483,-0.1484,-0.1484,-0.1524,-0.1525,-0.1526,-0.1526,-0.158,-0.1581,-0.1583,-0.158,0,0,-0.1588,-0.1589,0,0,0,0,0,0,0,0,-0.1401,-0.1405,-0.1452,-0.1455,-0.1459,-0.1498,-0.1482,-0.1517,-0.1524,-0.1499,-0.1526,-0.1527,-0.1553,-0.1557,-0.1565,-0.1582,-0.1585,-0.1588,-0.1589,-0.159,-0.159,0,0,0,0,0,0,0,-0.1398,-0.1403,-0.1449,-0.1453,-0.1457,-0.147,-0.1475,-0.1488,-0.1521,-0.1501,-0.1505,-0.1512,-0.1555,-0.1563,-0.1566,-0.1585,-0.1588,-0.1589,-0.159,-0.1591,-0.1661,-0.1662,0,0,0,0,0,0,-0.1392,-0.1401,-0.1448,-0.1451,-0.1432,-0.147,-0.1477,-0.1484,-0.1521,-0.1528,-0.1511,-0.1514,-0.156,-0.1564,-0.1568,-0.1631,-0.159,-0.1591,-0.1592,-0.166,-0.1662,-0.1663,0,0,0,0,0,0,-0.1391,-0.1396,-0.1446,-0.1428,-0.1435,-0.1471,-0.1479,-0.1485,-0.1519,-0.1529,-0.1535,-0.1541,-0.1561,-0.1566,-0.1606,-0.1631,-0.1592,-0.1593,-0.1659,-0.1661,-0.1662,-0.1716,0,0,0,0,0,0,-0.1389,-0.1395,-0.1411,-0.1427,-0.1436,-0.1474,-0.1479,-0.1486,-0.1521,-0.1525,-0.1556,-0.1561,-0.1562,-0.1604,-0.1608,-0.1633,-0.1595,-0.1658,-0.166,-0.1662,-0.1713,-0.1719,-0.1724,0,0,0,0,0,-0.1386,-0.14,-0.1411,-0.1418,-0.1452,-0.1475,-0.1481,-0.1507,-0.1522,-0.154,-0.1566,-0.1561,-0.1617,-0.1606,-0.161,-0.1636,-0.1657,-0.166,-0.1662,-0.171,-0.1717,-0.1724,0,0,0,0,0,0,-0.1382,-0.1406,-0.1418,-0.144,-0.1464,-0.1483,-0.1504,-0.1521,-0.1556,-0.1568,-0.1577,-0.1584,-0.1626,-0.1623,-0.1611,-0.166,-0.1634,-0.1637,-0.167,-0.1677,-0.1682,-0.167,-0.1596,0,0,0,0,0,-0.1387,-0.1406,-0.1428,-0.1449,-0.1462,-0.1488,-0.1506,-0.1525,-0.1551,-0.1568,-0.1591,-0.1613,-0.1633,-0.165,-0.1664,-0.1695,-0.1678,-0.1712,-0.1718,-0.1722,-0.1715,-0.1715,-0.172,-0.1669,-0.1669,-0.1669,0,0,-0.1392,-0.1408,-0.142,-0.145,-0.1471,-0.1495,-0.1501,-0.1535,-0.1563,-0.1567,-0.1621,-0.1636,-0.1645,-0.1681,-0.1699,-0.1686,-0.173,-0.1725,-0.1729,-0.1719,-0.1718,-0.1723,-0.1727,-0.1671,-0.1671,-0.167,0,0,-0.1401,-0.1425,-0.1442,-0.1465,-0.1501,-0.1516,-0.1532,-0.1567,-0.1593,-0.1639,-0.1649,-0.1681,-0.1716,-0.1727,-0.1735,-0.1778,-0.1759,-0.1786,-0.1809,-0.181,-0.1814,-0.1817,-0.181,-0.1812,-0.179,-0.179,-0.179,0,-0.1408,-0.1431,-0.1452,-0.1475,-0.1497,-0.1529,-0.1553,-0.1584,-0.1631,-0.1647,-0.1664,-0.1714,-0.1735,-0.1763,-0.1786,-0.1792,-0.1783,-0.1786,-0.1817,-0.182,-0.1822,-0.1814,-0.1815,-0.1793,-0.1793,-0.1793,-0.1792,0,-0.1423,-0.1454,-0.1468,-0.1507,-0.1532,-0.156,-0.1598,-0.1633,-0.1669,-0.1692,-0.1737,-0.1765,-0.1789,-0.1808,-0.1817,-0.1845,-0.1832,-0.1824,-0.1799,-0.183,-0.182,-0.182,-0.1797,-0.1796,-0.1795,-0.1795,0,0,-0.1404,-0.1466,-0.1474,-0.1494,-0.1552,-0.1567,-0.1619,-0.1658,-0.168,-0.1736,-0.1762,-0.1816,-0.1828,-0.1837,-0.1852,-0.1864,-0.1892,-0.1859,-0.1858,-0.185,-0.1889,-0.1755,-0.1743,-0.1891,-0.1891,-0.1892,-0.1878,0,-0.1411,-0.1452,-0.1486,-0.153,-0.1551,-0.1597,-0.1633,-0.1675,-0.1714,-0.1749,-0.1784,-0.1816,-0.184,-0.1857,-0.1877,-0.1891,-0.1895,-0.1896,-0.1861,-0.1859,-0.1735,-0.1739,-0.1893,-0.1878,-0.1878,-0.1878,-0.1878,0,-0.1408,-0.1436,-0.1481,-0.1529,-0.1543,-0.1578,-0.1625,-0.1662,-0.1715,-0.1745,-0.1784,-0.1811,-0.1858,-0.1863,-0.1896,-0.1897,-0.1896,-0.1898,-0.1898,-0.1749,-0.1725,-0.1838,-0.1879,-0.1879,-0.1879,-0.1879,-0.1879,0,-0.1364,-0.1426,-0.146,-0.1482,-0.1547,-0.1574,-0.1606,-0.166,-0.168,-0.1741,-0.1761,-0.1812,-0.1844,-0.1859,-0.1887,-0.1895,-0.19,-0.1906,-0.1776,-0.1767,-0.1871,-0.1867,-0.1902,-0.1902,-0.1902,-0.1902,-0.1902,0,-0.1341,-0.137,-0.1445,-0.1464,-0.1485,-0.1546,-0.1571,-0.1609,-0.1662,-0.1679,-0.1753,-0.1772,-0.1846,-0.1864,-0.1878,-0.1822,-0.1892,-0.1766,-0.1747,-0.1895,-0.1894,-0.1871,-0.1868,-0.1901,-0.1901,-0.1902,-0.1902,0,-0.1283,-0.1345,-0.1375,-0.1447,-0.1467,-0.1477,-0.1534,-0.1542,-0.1614,-0.164,-0.1662,-0.1749,-0.1774,-0.1811,-0.1836,-0.1791,-0.1763,-0.172,-0.187,-0.1862,-0.1634,-0.1634,-0.157,-0.1564,-0.156,-0.1557,-0.1554,0,-0.1255,-0.1272,-0.1339,-0.1348,-0.1384,-0.1415,-0.1427,-0.1501,-0.1513,-0.1613,-0.1612,-0.1671,-0.1714,-0.164,-0.1698,-0.1672,-0.1656,-0.1624,-0.163,-0.1608,-0.1597,-0.1604,-0.1609,-0.1547,-0.1546,-0.1545,-0.1544,0,-0.1186,-0.1223,-0.1243,-0.1259,-0.128,-0.1292,-0.1325,-0.1325,-0.1414,-0.1495,-0.1516,-0.1527,-0.1542,-0.1561,-0.1535,-0.1528,-0.1638,-0.1579,-0.1588,-0.1594,-0.158,-0.1575,-0.1585,-0.1529,-0.1531,-0.1532,-0.1533,0,-0.1124,-0.1111,-0.1142,-0.1142,-0.1169,-0.1163,-0.1195,-0.1215,-0.1241,-0.1364,-0.1373,-0.145,-0.1535,-0.1485,-0.1475,-0.1436,-0.1421,-0.1378,-0.1397,-0.1414,-0.1367,-0.1326,-0.1166,0,0,0,0,0,-0.1048,-0.1022,-0.1017,-0.1013,-0.1041,-0.1056,-0.1119,-0.1164,-0.1263,-0.1234,-0.1299,-0.1311,-0.1307,-0.1351,-0.1278,-0.139,-0.1417,-0.1297,-0.1376,-0.1447,-0.1464,-0.1422,0,0,0,0,0,0,-0.0995,-0.0987,-0.0975,-0.0909,-0.0889,-0.0904,-0.0945,-0.1018,-0.1012,-0.1128,-0.1132,-0.1215,-0.1227,-0.1323,-0.1247,-0.1253,-0.127,-0.1342,-0.1338,-0.1437,-0.1453,-0.1467,-0.1429,0,0,0,0,0]},{"header":{"parameterUnit":"m.s-1","parameterCategory":2,"la1":30.2991,"la2":30.254,"lo1":-89.0895,"lo2":-89.0444,"dy":0.0017,"dx":0.0017,"nx":28,"ny":28,"refTime":"2026-02-17T09:00:00:Z","depth":"4","parameterNumber":3,"parameterNumberName":"V-component_of_CURRENTS"},"data":[0,0,0,0,0,0,0,0,0,0,0,0,0,0,0,0,0,0,0,0,0,0,0,0,0,0,0,0,0,0,0,0,0,0,0,0,0,0,0,0,0,0,0,0,0,0,0,0,0,0,0,0,0,0,0,0,0,0,-0.0291,-0.029,0,-0.0246,-0.0245,-0.0244,-0.0211,-0.0211,-0.0211,-0.0211,-0.0111,-0.0108,-0.0106,0,0,0,0,0,0,0,0,0,0,0,0,0,-0.0285,-0.0285,-0.0291,-0.029,-0.029,-0.0246,-0.0245,-0.0244,-0.0211,-0.0211,-0.0211,-0.0211,-0.0111,-0.0108,-0.0105,0,0,0,0,0,0,0,0,0,0,0,0,0,-0.0267,-0.0285,-0.0291,-0.0269,-0.0267,-0.0246,-0.0245,-0.0244,-0.0211,-0.0211,-0.0211,-0.0211,-0.0112,-0.0109,-0.0105,-0.0085,0,0,-0.0093,-0.0092,0,0,0,0,0,0,0,0,-0.0268,-0.0267,-0.0273,-0.0271,-0.0268,-0.0235,-0.0206,-0.0189,-0.0212,-0.0231,-0.0211,-0.0211,-0.0148,-0.0142,-0.0132,-0.008,-0.0076,-0.0093,-0.0091,-0.0089,-0.0088,0,0,0,0,0,0,0,-0.0269,-0.0268,-0.0271,-0.0273,-0.027,-0.0241,-0.0238,-0.0202,-0.0189,-0.0229,-0.0227,-0.0225,-0.0147,-0.0136,-0.0129,-0.0074,-0.0093,-0.009,-0.0087,-0.0086,0.0006,0.0006,0,0,0,0,0,0,-0.0282,-0.027,-0.0273,-0.027,-0.027,-0.0241,-0.0238,-0.0245,-0.019,-0.0183,-0.0225,-0.0224,-0.0142,-0.0134,-0.0125,-0.0106,-0.0089,-0.0085,-0.0083,0.0005,0.0006,0.0006,0,0,0,0,0,0,-0.0282,-0.0283,-0.0274,-0.0269,-0.0267,-0.0242,-0.0249,-0.0244,-0.0237,-0.0188,-0.0179,-0.0224,-0.0142,-0.0131,-0.01,-0.0101,-0.0084,-0.008,0.0005,0.0005,0.0006,-0.0061,0,0,0,0,0,0,-0.0282,-0.0284,-0.0292,-0.0271,-0.0267,-0.0269,-0.0249,-0.0243,-0.0236,-0.0234,-0.0184,-0.0174,-0.0141,-0.0106,-0.0096,-0.0096,-0.0077,0.0005,0.0005,0.0006,-0.0059,-0.0063,-0.0067,0,0,0,0,0,-0.0282,-0.0296,-0.0293,-0.0293,-0.0281,-0.027,-0.0265,-0.0245,-0.0237,-0.0237,-0.0204,-0.0176,-0.0097,-0.0103,-0.0091,-0.009,0.0005,0.0005,0.0006,-0.0057,-0.0062,-0.0067,0,0,0,0,0,0,-0.0294,-0.0293,-0.029,-0.0301,-0.029,-0.0265,-0.0264,-0.0251,-0.0225,-0.0222,-0.0176,-0.0164,-0.0137,-0.0103,-0.0111,-0.0062,-0.004,-0.0038,-0.0092,-0.0096,-0.01,-0.0118,-0.0074,0,0,0,0,0,-0.0303,-0.0315,-0.0304,-0.0312,-0.0311,-0.0289,-0.0282,-0.027,-0.0246,-0.0235,-0.0202,-0.0162,-0.0126,-0.0105,-0.0069,-0.0043,-0.0003,-0.0033,-0.0037,-0.004,-0.0046,0.0012,0.0013,0.0007,0.0007,0.0007,0,0,-0.031,-0.0311,-0.0317,-0.0316,-0.0306,-0.031,-0.0284,-0.028,-0.0281,-0.0227,-0.0215,-0.0175,-0.0122,-0.0096,-0.008,-0.0068,-0.0017,-0.004,-0.0044,-0.0047,0.0012,0.0013,0.0013,0.0007,0.0007,0.0007,0,0,-0.0328,-0.0332,-0.0347,-0.0344,-0.0338,-0.0326,-0.0329,-0.031,-0.0299,-0.0283,-0.0243,-0.0207,-0.0156,-0.0118,-0.0092,-0.0093,-0.0041,-0.008,-0.0112,-0.0056,-0.0055,-0.0054,-0.0003,0.0003,-0.008,-0.008,-0.008,0,-0.0337,-0.0358,-0.0347,-0.036,-0.0366,-0.0339,-0.0356,-0.034,-0.0312,-0.0307,-0.0288,-0.0211,-0.0167,-0.0128,-0.0128,-0.0102,-0.0065,-0.0102,-0.0062,-0.006,-0.0057,-0.0005,0.0002,-0.0083,-0.0083,-0.0083,-0.0082,0,-0.0365,-0.0384,-0.0392,-0.0406,-0.0407,-0.0416,-0.0401,-0.0397,-0.0381,-0.0362,-0.0326,-0.0261,-0.0217,-0.0192,-0.0161,-0.0122,-0.0099,-0.0077,-0.0055,-0.0061,-0.0005,0.0004,-0.0088,-0.0087,-0.0086,-0.0085,0,0,-0.0381,-0.0409,-0.0413,-0.0436,-0.0436,-0.0444,-0.0448,-0.0446,-0.0452,-0.0408,-0.04,-0.033,-0.0295,-0.0262,-0.0208,-0.0155,-0.0103,-0.0116,-0.0111,-0.0074,0.0019,0.0002,0.0011,-0.0074,-0.0073,-0.0072,0.005,0,-0.0409,-0.0454,-0.0455,-0.0498,-0.0522,-0.0511,-0.052,-0.0512,-0.0491,-0.0474,-0.0402,-0.0369,-0.032,-0.0295,-0.0237,-0.0133,-0.0081,-0.0138,0.0027,0.0032,0.001,0.0019,-0.0068,0.0057,0.006,0.0061,0.0062,0,-0.0436,-0.0467,-0.0518,-0.0561,-0.057,-0.059,-0.0609,-0.0612,-0.0578,-0.0558,-0.051,-0.0452,-0.0369,-0.0325,-0.016,-0.0199,-0.0104,-0.002,-0.0013,-0.0001,0.0032,0.0068,0.008,0.0078,0.0077,0.0076,0.0075,0,-0.0463,-0.0512,-0.056,-0.0574,-0.0611,-0.0636,-0.0651,-0.0641,-0.0645,-0.0606,-0.0593,-0.0496,-0.0428,-0.0306,-0.0143,-0.0149,0.0044,0.0062,0.0137,0.0138,0.0146,0.0143,0.0172,0.0172,0.0172,0.0172,0.0171,0,-0.0492,-0.0533,-0.0582,-0.0612,-0.0672,-0.0679,-0.0724,-0.0724,-0.0708,-0.07,-0.0637,-0.0585,-0.0418,-0.029,-0.0156,0.0018,0.0037,0.0132,0.0167,0.0115,0.0108,0.0153,0.0149,0.0176,0.0175,0.0174,0.0173,0,-0.0511,-0.0542,-0.0606,-0.0666,-0.0689,-0.0731,-0.0777,-0.0796,-0.0781,-0.0762,-0.0749,-0.0633,-0.0466,-0.0304,-0.0079,0.0007,0.017,0.0226,0.0155,0.0185,0.0228,0.022,0.0317,0.0317,0.0317,0.0318,0.0318,0,-0.0523,-0.0558,-0.0648,-0.069,-0.0723,-0.0784,-0.0818,-0.0831,-0.0835,-0.0775,-0.0753,-0.0611,-0.0515,-0.0214,-0.0052,0.0181,0.0213,0.028,0.0251,0.0218,0.0244,0.0234,0.0225,0.0318,0.0319,0.0319,0.0319,0,-0.0548,-0.0582,-0.0635,-0.0721,-0.0779,-0.0837,-0.0879,-0.0884,-0.0869,-0.086,-0.0733,-0.0592,-0.0406,-0.0195,-0.0022,0.0148,0.0222,0.0284,0.0285,0.0258,0.0221,0.0244,0.0235,0.032,0.032,0.032,0.032,0,-0.0562,-0.0604,-0.0672,-0.0743,-0.0816,-0.0858,-0.0885,-0.0867,-0.0865,-0.0792,-0.0737,-0.0553,-0.0439,-0.0209,-0.0042,0.0106,0.0142,0.0176,0.0183,0.0184,0.0096,0.0027,0.0098,0,0,0,0,0,-0.057,-0.0616,-0.0685,-0.0763,-0.083,-0.0867,-0.0907,-0.0915,-0.0897,-0.0808,-0.0772,-0.0597,-0.0345,-0.0231,-0.0081,-0.0048,0.0152,0.0127,0.019,0.0326,0.0325,0.0242,0,0,0,0,0,0,-0.0579,-0.0645,-0.0681,-0.0756,-0.0804,-0.0869,-0.0893,-0.0882,-0.0826,-0.0784,-0.0641,-0.0577,-0.0325,-0.0421,-0.0079,-0.0037,0.0018,0.0244,0.0246,0.0327,0.0326,0.0325,0.0239,0,0,0,0,0]}]]